Find Starlink 33942

NORAD ID: 63974 Int'l Des: 2025-099 Owner: SPXS Country: US Constellation: starlink operational
LEOCIRCULAR

Live Position

Loading 3D Globe...

About Starlink 33942

Description loading...

Upcoming Passes

Passes for default location (London). Set your location on the main map for personalized predictions.

Altitude History

Loading altitude history...

Two-Line Element Set

1 63974U 25099Y 26103.92888471 .00007443 00000-0 27965-3 0 9993
2 63974 43.0009 333.9151 0001335 271.1592 88.9107 15.27588975 52761
Epoch: Apr 13, 2026 • Age: 10 hours

Current Status

Altitude 482.6 km
Velocity 7.63 km/s
Sub-Earth Point 18.26°N, 32.35°E
Launch Date May 13, 2025
Age 0.9 years
Type internet

Technical Details

Classification Payload
Mass 575.00 kg
Dry Mass 530.00 kg
Total Mass 575.00 kg
Length 0.30 m
Diameter 4.10 m
Span 29.00 m
Shape Box + pan
Manufacturer SPXS
Bus Type Starlink V2MO
Phase Status In Orbit
Owner/State SPXS/US

Most Searched